[[{"header":{"parameterUnit":"m.s-1","parameterCategory":1,"la1":30.2991,"la2":30.254,"lo1":-89.0895,"lo2":-89.0444,"dy":0.0017,"dx":0.0017,"nx":28,"ny":28,"refTime":"2024-02-21T09:00:00:Z","depth":0,"parameterNumber":2,"parameterNumberName":"U-component_of_WINDS"},"data":[0,0,0,0,0,0,0,0,0,0,0,0,0,0,0,0,0,0,0,0,0,0,0,0,0,0,0,0,0,0,0,0,0,0,0,0,0,0,0,0,0,0,0,0,0,0,0,0,0,0,0,0,0,0,0,0,0,0,-1.4248,-1.4248,0,-1.4239,-1.4239,-1.4239,-1.4213,-1.4212,-1.4211,-1.4211,-1.4203,-1.4203,-1.4204,0,0,0,0,0,0,0,0,0,0,0,0,0,-1.4243,-1.4243,-1.4248,-1.4248,-1.4248,-1.4239,-1.4239,-1.4239,-1.4213,-1.4212,-1.4211,-1.4211,-1.4203,-1.4203,-1.4204,0,0,0,0,0,0,0,0,0,0,0,0,0,-1.4241,-1.4243,-1.4248,-1.4234,-1.4232,-1.4239,-1.4239,-1.4239,-1.4213,-1.4212,-1.4211,-1.421,-1.4203,-1.4203,-1.4204,-1.4224,0,0,-1.4205,-1.4205,0,0,0,0,0,0,0,0,-1.4241,-1.4241,-1.4236,-1.4235,-1.4233,-1.4226,-1.4234,-1.4234,-1.4213,-1.422,-1.4211,-1.421,-1.4211,-1.4211,-1.4211,-1.4224,-1.4224,-1.4205,-1.4206,-1.4206,-1.4206,0,0,0,0,0,0,0,-1.4241,-1.4241,-1.4245,-1.4236,-1.4234,-1.4228,-1.4227,-1.4234,-1.4221,-1.4219,-1.4218,-1.4217,-1.421,-1.4211,-1.4211,-1.4224,-1.4205,-1.4206,-1.4206,-1.4206,-1.4253,-1.4254,0,0,0,0,0,0,-1.4243,-1.4242,-1.4245,-1.4244,-1.4235,-1.4229,-1.4227,-1.4229,-1.4221,-1.4219,-1.4218,-1.4216,-1.4211,-1.4211,-1.4211,-1.4234,-1.4206,-1.4206,-1.4207,-1.4252,-1.4253,-1.4254,0,0,0,0,0,0,-1.4243,-1.4244,-1.4245,-1.4242,-1.4242,-1.423,-1.4232,-1.423,-1.423,-1.4219,-1.4217,-1.4221,-1.421,-1.421,-1.4221,-1.4234,-1.4206,-1.4207,-1.4251,-1.4252,-1.4254,-1.4282,0,0,0,0,0,0,-1.4243,-1.4244,-1.4251,-1.4243,-1.4242,-1.4256,-1.4233,-1.423,-1.4231,-1.4228,-1.4221,-1.4219,-1.4209,-1.4221,-1.4222,-1.4234,-1.4207,-1.425,-1.4252,-1.4253,-1.428,-1.4284,-1.4288,0,0,0,0,0,-1.4243,-1.426,-1.4252,-1.4252,-1.4251,-1.4256,-1.4256,-1.4244,-1.4232,-1.424,-1.4233,-1.422,-1.4232,-1.4222,-1.4223,-1.4236,-1.4249,-1.4251,-1.4253,-1.4278,-1.4284,-1.4288,0,0,0,0,0,0,-1.4271,-1.4259,-1.4249,-1.4264,-1.4261,-1.4252,-1.4261,-1.425,-1.4251,-1.4248,-1.4233,-1.4232,-1.4245,-1.4242,-1.423,-1.4255,-1.4238,-1.4241,-1.4257,-1.4262,-1.4266,-1.4267,-1.4208,0,0,0,0,0,-1.4278,-1.4283,-1.4272,-1.4286,-1.4285,-1.4274,-1.4275,-1.4266,-1.4263,-1.4262,-1.4255,-1.4253,-1.4257,-1.4259,-1.4262,-1.428,-1.4278,-1.4289,-1.4293,-1.4296,-1.4298,-1.4308,-1.4312,-1.4261,-1.4261,-1.4261,0,0,-1.4294,-1.4288,-1.4292,-1.4292,-1.4288,-1.4294,-1.4273,-1.4279,-1.4283,-1.4263,-1.4273,-1.4268,-1.4265,-1.4279,-1.4285,-1.4277,-1.4312,-1.4299,-1.4302,-1.4302,-1.431,-1.4315,-1.4319,-1.4263,-1.4262,-1.4262,0,0,-1.4326,-1.4322,-1.4333,-1.4331,-1.4326,-1.4318,-1.4321,-1.4313,-1.4309,-1.4319,-1.4304,-1.4309,-1.4315,-1.4313,-1.4313,-1.4345,-1.4333,-1.4346,-1.4367,-1.4376,-1.438,-1.4384,-1.4395,-1.4399,-1.4348,-1.4348,-1.4348,0,-1.4347,-1.4354,-1.4341,-1.4348,-1.4348,-1.433,-1.4341,-1.4339,-1.4336,-1.4337,-1.4327,-1.4334,-1.4331,-1.4345,-1.4353,-1.4353,-1.4356,-1.4346,-1.4381,-1.4384,-1.4387,-1.4398,-1.4402,-1.435,-1.435,-1.435,-1.4349,0,-1.438,-1.4385,-1.4395,-1.4392,-1.4393,-1.4403,-1.4391,-1.4394,-1.4385,-1.4378,-1.4388,-1.4383,-1.4385,-1.4387,-1.4379,-1.44,-1.4395,-1.4383,-1.4366,-1.4394,-1.4403,-1.4407,-1.4352,-1.4352,-1.4351,-1.4351,0,0,-1.4429,-1.4418,-1.4422,-1.442,-1.4414,-1.4418,-1.4427,-1.4428,-1.4431,-1.443,-1.4437,-1.4443,-1.4432,-1.4432,-1.4422,-1.4431,-1.4456,-1.4418,-1.4417,-1.4425,-1.448,-1.4489,-1.4494,-1.4448,-1.4449,-1.445,-1.448,0,-1.4459,-1.4473,-1.4461,-1.4477,-1.4482,-1.4465,-1.4473,-1.447,-1.4464,-1.4468,-1.4461,-1.4466,-1.4451,-1.4451,-1.4458,-1.4451,-1.4467,-1.4449,-1.4455,-1.4455,-1.4456,-1.4499,-1.4508,-1.4537,-1.4484,-1.4484,-1.4485,0,-1.4496,-1.4496,-1.4513,-1.4506,-1.4507,-1.4514,-1.4514,-1.4518,-1.4515,-1.451,-1.451,-1.4499,-1.4507,-1.449,-1.4502,-1.449,-1.4492,-1.449,-1.449,-1.449,-1.4472,-1.45,-1.4546,-1.455,-1.4491,-1.449,-1.449,0,-1.453,-1.4534,-1.4545,-1.4544,-1.4536,-1.4541,-1.4538,-1.4534,-1.4535,-1.4536,-1.4536,-1.4538,-1.4539,-1.454,-1.453,-1.4518,-1.4543,-1.4525,-1.4539,-1.454,-1.4545,-1.4545,-1.4592,-1.4547,-1.4547,-1.4546,-1.4546,0,-1.4565,-1.4576,-1.456,-1.4566,-1.4578,-1.4565,-1.4577,-1.4572,-1.4569,-1.4574,-1.4559,-1.4565,-1.4551,-1.4555,-1.4547,-1.4558,-1.4559,-1.4555,-1.4553,-1.4557,-1.4557,-1.4558,-1.4555,-1.4548,-1.4547,-1.4547,-1.4547,0,-1.4605,-1.4594,-1.4605,-1.4596,-1.4594,-1.4604,-1.4596,-1.4602,-1.4595,-1.4603,-1.4604,-1.4593,-1.4597,-1.4587,-1.459,-1.4585,-1.46,-1.4595,-1.4601,-1.46,-1.4614,-1.4613,-1.4664,-1.467,-1.462,-1.4621,-1.4621,0,-1.4628,-1.4636,-1.4628,-1.4631,-1.4628,-1.4632,-1.4634,-1.4621,-1.4623,-1.462,-1.4626,-1.4629,-1.4631,-1.4639,-1.4631,-1.4634,-1.4628,-1.4646,-1.4628,-1.4632,-1.4628,-1.4628,-1.4629,-1.4649,-1.465,-1.465,-1.4651,0,-1.467,-1.4664,-1.4666,-1.4667,-1.4669,-1.4669,-1.4668,-1.4671,-1.4657,-1.466,-1.4664,-1.4665,-1.4668,-1.4672,-1.4672,-1.4669,-1.4658,-1.4656,-1.466,-1.4663,-1.4667,-1.4665,-1.4611,-1.4655,-1.4655,-1.4654,-1.4654,-1.4654,-1.4702,-1.4708,-1.4704,-1.4707,-1.4704,-1.4704,-1.4709,-1.4703,-1.4706,-1.4707,-1.4699,-1.4705,-1.4702,-1.4701,-1.47,-1.4704,-1.4696,-1.4701,-1.4702,-1.4704,-1.4706,-1.4666,-1.4704,-1.4704,-1.4704,-1.4704,-1.4704,0,-1.4743,-1.4739,-1.4742,-1.4741,-1.4744,-1.4732,-1.473,-1.4733,-1.4738,-1.4736,-1.4738,-1.4743,-1.4746,-1.4739,-1.4741,-1.4746,-1.4741,-1.4747,-1.4747,-1.4746,-1.4713,-1.471,-1.4751,-1.4751,-1.4751,-1.4751,-1.4751,-1.4751,-1.4765,-1.4775,-1.4769,-1.4778,-1.4774,-1.4779,-1.4779,-1.4779,-1.4777,-1.4783,-1.4785,-1.478,-1.4776,-1.4778,-1.4781,-1.4779,-1.478,-1.4788,-1.4784,-1.4753,-1.4749,-1.4744,-1.4741,-1.4789,-1.4789,-1.4817,-1.4817,-1.4818]},{"header":{"parameterUnit":"m.s-1","parameterCategory":1,"la1":30.2991,"la2":30.254,"lo1":-89.0895,"lo2":-89.0444,"dy":0.0017,"dx":0.0017,"nx":28,"ny":28,"refTime":"2024-02-21T09:00:00:Z","depth":0,"parameterNumber":3,"parameterNumberName":"V-component_of_WINDS"},"data":[0,0,0,0,0,0,0,0,0,0,0,0,0,0,0,0,0,0,0,0,0,0,0,0,0,0,0,0,0,0,0,0,0,0,0,0,0,0,0,0,0,0,0,0,0,0,0,0,0,0,0,0,0,0,0,0,0,0,3.3005,3.3005,0,3.3023,3.3023,3.3023,3.2987,3.2986,3.2984,3.2983,3.2999,3.3001,3.3002,0,0,0,0,0,0,0,0,0,0,0,0,0,3.2937,3.2938,3.3005,3.3005,3.3005,3.3023,3.3023,3.3023,3.2987,3.2985,3.2984,3.2983,3.2999,3.3001,3.3003,0,0,0,0,0,0,0,0,0,0,0,0,0,3.2962,3.2939,3.3005,3.2989,3.2988,3.3022,3.3023,3.3023,3.2987,3.2985,3.2984,3.2982,3.2998,3.3,3.3003,3.3052,0,0,3.301,3.3011,0,0,0,0,0,0,0,0,3.296,3.2964,3.2991,3.299,3.2989,3.3001,3.3005,3.3033,3.2988,3.2987,3.2983,3.2981,3.3001,3.3003,3.301,3.3053,3.3054,3.301,3.3011,3.3012,3.3013,0,0,0,0,0,0,0,3.2959,3.2963,3.3012,3.2992,3.299,3.2981,3.2982,3.301,3.3004,3.2987,3.2985,3.2987,3.3,3.3008,3.301,3.3054,3.301,3.3012,3.3013,3.3014,3.3138,3.314,0,0,0,0,0,0,3.2959,3.2962,3.3011,3.3012,3.297,3.2983,3.2985,3.2999,3.3003,3.3003,3.2989,3.2986,3.3005,3.3008,3.3011,3.3069,3.3012,3.3014,3.3016,3.3136,3.3139,3.3141,0,0,0,0,0,0,3.2958,3.2964,3.301,3.2986,3.2992,3.2986,3.3002,3.3,3.3008,3.3005,3.3003,3.2998,3.3004,3.3007,3.3042,3.3069,3.3015,3.3018,3.3134,3.3137,3.314,3.3186,0,0,0,0,0,0,3.2956,3.2964,3.2983,3.2987,3.2993,3.3042,3.3004,3.3002,3.3012,3.3008,3.3013,3.3012,3.3003,3.3039,3.3045,3.3071,3.3019,3.3132,3.3135,3.3139,3.3182,3.319,3.3197,0,0,0,0,0,3.2954,3.2995,3.2984,3.299,3.3017,3.3044,3.3047,3.3036,3.3015,3.3034,3.3032,3.3012,3.3065,3.3043,3.3049,3.3077,3.313,3.3134,3.3139,3.3179,3.3189,3.3197,0,0,0,0,0,0,3.2993,3.2995,3.2983,3.3027,3.3036,3.3038,3.3062,3.3047,3.3061,3.3057,3.3041,3.3043,3.3081,3.3082,3.3057,3.3125,3.3094,3.31,3.3123,3.3132,3.3139,3.3138,3.3021,0,0,0,0,0,3.3007,3.3029,3.3029,3.3068,3.3073,3.3067,3.3078,3.3069,3.3077,3.308,3.3081,3.3089,3.3107,3.312,3.3136,3.3182,3.3183,3.3204,3.3212,3.3218,3.3223,3.3248,3.3257,3.3155,3.3155,3.3155,0,0,3.3035,3.3039,3.3054,3.3076,3.3082,3.3105,3.307,3.3096,3.3112,3.3084,3.3117,3.3118,3.3126,3.3166,3.3184,3.3169,3.3251,3.3224,3.3229,3.323,3.3253,3.3263,3.3271,3.3158,3.3157,3.3157,0,0,3.3099,3.3105,3.3137,3.3144,3.3154,3.3149,3.3157,3.3162,3.3161,3.3195,3.3174,3.3193,3.3225,3.3232,3.3239,3.3306,3.3289,3.3312,3.3351,3.3375,3.3383,3.339,3.3414,3.3423,3.3317,3.3317,3.3317,0,3.3133,3.3168,3.3156,3.3184,3.3194,3.3169,3.3202,3.3209,3.3223,3.323,3.3213,3.3253,3.3257,3.3299,3.3315,3.3322,3.333,3.3311,3.3383,3.339,3.3396,3.3419,3.3428,3.332,3.3319,3.3319,3.3319,0,3.3209,3.3234,3.3259,3.3274,3.3287,3.3317,3.3309,3.3323,3.3313,3.331,3.3344,3.3348,3.3365,3.3374,3.3364,3.3415,3.3405,3.3386,3.3354,3.3409,3.343,3.3438,3.3324,3.3323,3.3322,3.3321,0,0,3.3298,3.3307,3.3317,3.3323,3.3332,3.335,3.3379,3.3397,3.3409,3.342,3.3443,3.3471,3.3453,3.3462,3.3452,3.3473,3.3526,3.3451,3.3451,3.3465,3.3582,3.3597,3.3607,3.3515,3.3516,3.3517,3.3582,0,3.3362,3.3412,3.3403,3.3451,3.3474,3.3451,3.3476,3.3484,3.3482,3.35,3.3497,3.3518,3.3492,3.3497,3.3517,3.3515,3.3549,3.3511,3.3536,3.3537,3.3535,3.3618,3.3634,3.3694,3.359,3.3591,3.3592,0,3.3443,3.3457,3.3509,3.3514,3.3523,3.3546,3.3562,3.3579,3.3587,3.3584,3.3594,3.3581,3.3608,3.3577,3.3615,3.3589,3.3598,3.3599,3.3601,3.3603,3.3568,3.3622,3.3713,3.3722,3.3605,3.3604,3.3603,0,3.3503,3.3535,3.357,3.3577,3.3584,3.36,3.3604,3.361,3.3622,3.3635,3.3642,3.3658,3.3667,3.3679,3.367,3.3648,3.3709,3.3677,3.3707,3.3708,3.3721,3.3721,3.3815,3.3728,3.3728,3.3727,3.3727,0,3.3575,3.3607,3.3597,3.3619,3.3654,3.3642,3.3678,3.3678,3.3684,3.3705,3.3686,3.3706,3.3692,3.3711,3.3704,3.3736,3.374,3.3738,3.3736,3.374,3.3741,3.3746,3.3742,3.373,3.3729,3.3729,3.3728,0,3.3648,3.3642,3.3679,3.3683,3.3685,3.3711,3.3714,3.3734,3.3731,3.3757,3.3763,3.3758,3.3778,3.377,3.3792,3.3787,3.3829,3.3821,3.3827,3.3825,3.3856,3.3853,3.3957,3.397,3.3874,3.3875,3.3876,0,3.3694,3.3719,3.3726,3.3739,3.3744,3.3765,3.3777,3.3766,3.3778,3.379,3.3808,3.3827,3.3842,3.3877,3.3874,3.3891,3.3883,3.3919,3.3886,3.3889,3.3884,3.3883,3.3885,3.3925,3.3926,3.3927,3.3928,0,3.3777,3.3773,3.3791,3.3809,3.3823,3.3836,3.3847,3.3859,3.3848,3.3864,3.3885,3.3897,3.392,3.3939,3.3954,3.3956,3.3941,3.3939,3.3946,3.3951,3.3953,3.3952,3.3845,3.3936,3.3935,3.3935,3.3934,3.3934,3.3838,3.3859,3.3867,3.3888,3.3895,3.3906,3.3925,3.3925,3.3943,3.3961,3.3953,3.3978,3.3985,3.4004,3.4009,3.4027,3.4014,3.4025,3.4028,3.4031,3.4035,3.395,3.403,3.403,3.403,3.4029,3.4029,0,3.392,3.3924,3.3944,3.396,3.3977,3.3961,3.3972,3.3987,3.4009,3.4017,3.4033,3.4057,3.4076,3.4076,3.4093,3.4108,3.4101,3.4113,3.4112,3.4112,3.4046,3.4038,3.4118,3.4118,3.4118,3.4118,3.4118,3.4118,3.3965,3.3999,3.3997,3.4034,3.4038,3.4063,3.4071,3.4081,3.4087,3.4116,3.4132,3.4132,3.4136,3.4154,3.417,3.4169,3.4176,3.4191,3.4188,3.4126,3.4117,3.4109,3.4101,3.4193,3.4193,3.4252,3.4253,3.4253]}]]